• Join FlightAware (Why Join?)
  • Login
  • US Flag 
01:46PM EST


 

Airport Tracker/Info


-or-


 

Live Flight TrackerFlight Track Log ✈ N22HP ✈ 20-Aug-2014 ✈ KORD - I17

Flight Track Log - Related Links

Times and Time Zones

All times are in EDT time to prevent confusion due to time zone crossing. See the N22HP flight status page for this flight to view local times or setup timezone preferences in your user account.

Time Position Orientation Groundspeed Altitude Reporting Facility
EDT Latitude Longitude Course Direction KTS MPH feet Rate Location/Type
04:22PM 41.9274 -87.7669 160° South  Level Estimated
04:23PM 41.6973 -87.3195 153° Southeast  Level Estimated
04:24PM 41.6618 -87.2464 123° Southeast  Level Estimated
04:25PM 41.6263 -87.1734 123° Southeast  Level Estimated
04:29PM 41.6786 -87.2545 153° Southeast  Level Estimated
04:30PM 41.6429 -87.1817 123° Southeast  Level Estimated
04:31PM 41.6071 -87.1089 123° Southeast  Level Estimated
04:32PM 41.5713 -87.0362 123° Southeast  Level Estimated
04:33PM 41.5355 -86.9635 123° Southeast  Level Estimated
04:34PM 41.4996 -86.8910 123° Southeast  Level Estimated
04:35PM 41.4636 -86.8185 123° Southeast  Level Estimated
04:35PM 41.9275 -87.9069 139° Southeast 141 162 4,100  Level Chicago Center
04:36PM 41.4276 -86.7461 124° Southeast  Level Estimated
04:36PM 41.8867 -87.8692 145° Southeast 182 209 5,100  Level Chicago Center
04:37PM 41.3916 -86.6738 124° Southeast  Level Estimated
04:37PM 41.8308 -87.8594 173° South 207 238 6,500  Level Chicago Center
04:38PM 41.3555 -86.6016 124° Southeast  Level Estimated
04:38PM 41.7761 -87.8447 169° South 193 222 8,200  Level Chicago Center
04:39PM 41.3194 -86.5295 124° Southeast  Level Estimated
04:39PM 41.7225 -87.8283 167° South 198 228 9,700  Level Chicago Center
04:40PM 41.6625 -87.8125 169° South 203 234 11,300 1,440 Climbing Chicago Center
04:41PM 41.6044 -87.7931 166° South 208 239 12,700 1,320 Climbing Chicago Center
04:42PM 41.5428 -87.7739 167° South 220 253 14,100 1,380 Climbing Chicago Center
04:43PM 41.5036 -87.6944 123° Southeast 243 280 15,600 1,380 Climbing Chicago Center
04:44PM 41.4711 -87.6078 117° Southeast 244 281 17,000 1,260 Climbing Chicago Center
04:45PM 41.4444 -87.5358 116° Southeast 247 284 18,300 1,320 Climbing Chicago Center
04:46PM 41.4069 -87.4353 116° Southeast 250 288 19,800 1,200 Climbing Chicago Center
04:47PM 41.3733 -87.3489 117° Southeast 255 293 20,900 1,020 Climbing Chicago Center
04:48PM 41.3406 -87.2617 117° Southeast 260 299 22,000 900 Climbing Chicago Center
04:49PM 41.3056 -87.1706 117° Southeast 272 313 22,800 480 Climbing Chicago Center
04:50PM 41.2697 -87.0758 117° Southeast 283 326 23,000 60 Climbing Chicago Center
04:51PM 41.2294 -86.9689 117° Southeast 317 365 23,000  Level Chicago Center
04:52PM 41.1789 -86.8394 117° Southeast 326 375 23,000 -120 Level Chicago Center
04:53PM 41.1367 -86.7294 117° Southeast 332 382 22,800 -600 Descending Chicago Center
04:54PM 41.0900 -86.6075 117° Southeast 347 399 21,800 -1,020 Descending Chicago Center
04:55PM 41.0450 -86.4914 117° Southeast 353 406 20,800 -1,020 Descending Chicago Center
04:56PM 40.9994 -86.3761 118° Southeast 354 407 19,800 -960 Descending Chicago Center
04:57PM 40.9558 -86.2617 117° Southeast 353 406 18,800 -960 Descending Chicago Center
04:58PM 40.9122 -86.1500 117° Southeast 346 398 17,900 -960 Descending Chicago Center
05:00PM 40.8592 -86.0189 118° Southeast 341 392 16,900 -900 Descending Chicago Center
05:01PM 40.8164 -85.9089 117° Southeast 341 392 16,100 -780 Descending Chicago Center
05:01PM 40.7997 -85.8667 118° Southeast 335 386 15,800 -780 Descending Chicago Center
05:02PM 40.7564 -85.7575 118° Southeast 335 386 15,000 -420 Descending Chicago Center
05:03PM 40.7147 -85.6547 118° Southeast 324 373 15,000  Level Chicago Center
05:04PM 40.6711 -85.5439 117° Southeast 312 359 15,000  Level Chicago Center
05:05PM 40.6308 -85.4439 118° Southeast 307 353 15,000  Level Chicago Center
05:06PM 40.5919 -85.3456 117° Southeast 306 352 15,000  Level Chicago Center
05:07PM 40.5511 -85.2464 118° Southeast 306 352 15,000  Level Chicago Center
05:08PM 40.5022 -85.1283 119° Southeast 306 352 15,000  Level Chicago Center
05:09PM 40.4769 -85.0664 118° Southeast 307 353 15,000  Level Indianapolis Center
05:09PM 40.4692 -85.0489 120° Southeast 307 353 15,000 -120 Level Indianapolis Center
05:10PM 40.4375 -84.9678 117° Southeast 307 353 14,900 -420 Descending Indianapolis Center
05:10PM 40.4289 -84.9497 122° Southeast 307 353 14,600 -1,800 Descending Indianapolis Center
05:11PM 40.3944 -84.8631 118° Southeast 330 380 13,100 -2,040 Descending Indianapolis Center
05:11PM 40.3794 -84.8267 118° Southeast 329 379 12,500 -1,980 Descending Indianapolis Center
05:12PM 40.3464 -84.7464 118° Southeast 347 399 11,100 -1,860 Descending Indianapolis Center
05:12PM 40.3344 -84.7186 119° Southeast 335 386 10,600 -1,860 Descending Indianapolis Center
05:13PM 40.2900 -84.6136 119° Southeast 333 383 8,600 -1,500 Descending Indianapolis Center
05:14PM 40.2408 -84.4917 118° Southeast 325 374 7,600 -1,020 Descending Indianapolis Center